AirNav   Textron
 
 489 users online  

2PA2 Hillview Airport
Auburn, Pennsylvania, USA


FAA INFORMATION EFFECTIVE 14 SEPTEMBER 2017

Location

FAA Identifier: 2PA2
Lat/Long: 40-35-54.9600N / 076-08-13.0200W
40-35.916000N / 076-08.217000W
40.5986000 / -76.1369500
(estimated)
Elevation: 780 ft. / 238 m (estimated)
From city: 2 miles W of AUBURN, PA
Time zone: UTC -4 (UTC -5 during Standard Time)
Zip code: 17922

Airport Operations

Airport use: Private use. Permission required prior to landing
Activation date: 08/2012
Control tower: no
ARTCC: NEW YORK CENTER
FSS: WILLIAMSPORT FLIGHT SERVICE STATION
Attendance: UNATNDD
Segmented circle: no

Airport Communications

WX AWOS-3 at ZER (13 nm NW): 127.57 (570-544-2778)
WX ASOS at RDG (15 nm SE): PHONE 610-372-9863

Nearby radio navigation aids

VOR radial/distance  VOR name  Freq  Var
ETXr282/20.7EAST TEXAS VOR/DME110.2009W
RAVr094/21.2RAVINE VORTAC114.6011W
HZLr190/(22.6)HAZLETON VOR109.4009W
LRPr023/29.6LANCASTER VOR/DME117.3009W
FJCr266/32.0ALLENTOWN VORTAC117.5010W
PTWr320/34.7POTTSTOWN VORTAC116.5009W
MIPr146/35.0MILTON VORTAC109.2009W
SEGr117/35.9SELINSGROVE VORTAC110.4008W

 
NDB name  Hdg/Dist  Freq  Var  ID
BELLGROVE073/21.332810WBZJ -... --.. .---

Airport Services

Runway Information

Runway 8/26

Dimensions: 1200 x 100 ft. / 366 x 30 m
Surface: turf
RUNWAY 8  RUNWAY 26
Traffic pattern: leftleft

Airport Ownership and Management from official FAA records

Ownership: Privately-owned
Owner: HAROLD L. MILLER
12 HOCK ST
CRESSONA, PA 17929
Phone 570-385-0370
Manager: HAROLD L. MILLER
12 HOCK ST
CRESSONA, PA 17929
Phone 570-385-0370

Airport Operational Statistics

Aircraft based on the field: 1
Single engine airplanes: 1
    

Instrument Procedures

There are no published instrument procedures at 2PA2.

Some nearby airports with instrument procedures:

KZER - Schuylkill County / Joe Zerbey Airport (13 nm NW)
KRDG - Reading Regional Airport/Carl A Spaatz Field (15 nm SE)
9D4 - Deck Airport (17 nm SW)
74N - Bendigo Airport (19 nm W)
08N - Keller Brothers Airport (20 nm SW)
 
Loc | Ops | Rwys | IFR | FBO | Links
Com | Nav | Svcs | Stats | Notes


 
Aerial photo
No photo
 
Airport distance calculator
Flying to Hillview Airport? Find the distance to fly.

From to 2PA2

Sunrise and sunset
Times for 20-Sep-2017
 Local
(UTC-4)
 Zulu
(UTC)
Morning civil twilight06:2410:24
Sunrise06:5110:51
Sunset19:0523:05
Evening civil twilight19:3223:32

Current date and time
Zulu (UTC)  20-Sep-2017 04:59:41
Local (UTC-4)  20-Sep-2017 00:59:41
 
METAR
KRDG 
16nm SE 
200454Z AUTO 35006KT 10SM OVC090 22/19 A2991 RMK AO2 RAB35E48 SLP129 P0000 T02170189 402780183 $
KMUI 
22nm SW 
200358Z AUTO 02005KT 10SM OVC095 23/17 A2994 RMK AO2 SLP138 T02250166
KHZL 
24nm N 
200435Z AUTO 34003KT 10SM 18/13 A3001 RMK AO2 PNO
KXLL 
30nm E 
200435Z AUTO 00000KT 10SM SCT110 20/19 A2992 RMK AO2
KLNS 
30nm S 
200453Z AUTO 02005KT 10SM BKN050 OVC085 22/18 A2993 RMK AO2 SLP130 T02220178 402780172
KABE 
31nm E 
200451Z 32003KT 10SM CLR 21/17 A2991 RMK AO2 SLP125 T02060172 402780189
TAF
KRDG 
16nm SE 
191905Z 1919/2018 04010KT P6SM SCT035 FM200100 35006KT P6SM SCT030 BKN080 FM201000 33008KT P6SM SCT100
NOTAMs
Click for the latest NOTAMs
NOTAMs are issued by the DoD/FAA and will open in a separate window not controlled by AirNav.

 

 
 

Would you like to see your business listed on this page?

 If your business provides an interesting product or service to pilots, flight crews, aircraft, or users of the Hillview Airport, you should consider listing it here.  To start the listing process, click on the button below
 
Add a business
 

Other Pages about Hillview Airport

Update a link
 
Copyright © AirNav, LLC. All rights reserved. Privacy Policy  Contact